Helicity
384 411 329 173 110 156 118 178 86 66 78 81 119 88 69 42 38 34 33 54 48 31 54 51 54 51 67 65 39 27 18 -1
556 406 301 197 77 107 163 138 67 36 76 121 98 98 75 66 61 55 39 48 73 91 96 89 78 84 73 44 31 16 10 9
698 649 264 256 73 97 150 97 27 45 95 130 113 79 60 58 73 73 78 93 90 110 120 125 121 104 72 51 23 4 12 8
232 163 247 147 108 150 139 41 -8 46 99 105 106 86 72 73 67 98 117 118 140 142 139 123 78 34 25 37 20 22 19 19
249 424 641 317 159 166 194 -35 19 93 103 116 92 82 78 64 66 66 76 111 101 114 120 87 61 46 41 36 40 41 40 50
236 394 383 271 -10 93 48 -2 72 73 58 89 75 78 74 68 61 65 91 97 128 141 114 89 77 69 63 62 65 59 62 64
-92 -107 -121 -205 -83 -39 -13 61 40 38 85 66 64 67 67 66 78 92 106 119 139 133 103 81 82 84 85 87 84 73 72 66
-165 -109 18 36 21 8 -9 -31 -31 27 52 44 49 48 66 77 106 132 145 146 145 119 101 94 98 95 96 90 86 79 71 69
-9 -15 -31 -28 -6 3 -2 23 66 39 34 28 36 46 70 102 138 154 167 171 162 144 132 116 109 103 106 95 88 81 82 93
-0 -0 -1 2 9 5 -24 -4 25 37 34 31 44 65 87 120 145 170 174 154 137 146 127 124 109 89 92 99 97 96 106 108
51 28 16 9 -13 -24 -16 1 7 20 37 43 56 75 89 118 166 192 172 157 156 132 129 110 98 98 104 99 95 103 119 128
51 24 2 -10 -24 -9 -4 5 4 15 21 32 57 79 98 143 186 191 181 188 160 147 137 134 119 115 110 106 84 36 63 100
45 35 28 16 14 19 6 13 25 28 28 50 68 101 129 162 198 211 191 178 175 169 175 153 148 127 90 11 -6 44 39 76
24 29 37 49 35 42 44 73 51 48 82 86 99 111 144 191 212 214 206 218 212 200 176 190 149 114 3 -29 -10 3 13 85
52 54 60 69 65 85 94 104 103 104 115 100 117 138 173 208 220 228 223 232 223 207 220 191 130 48 -68 -17 46 115 137 143
49 57 71 83 103 112 130 122 151 151 159 160 162 155 192 229 242 251 253 243 256 269 237 196 119 -6 -46 4 113 155 175 160
82 68 71 86 110 109 142 141 148 187 213 171 183 222 245 258 272 269 269 285 299 275 242 125 99 55 -19 107 138 171 177 148
140 125 108 123 131 148 161 187 227 238 228 214 236 245 262 268 278 269 294 337 313 218 159 106 102 45 124 119 126 122 141 158
153 169 143 153 168 171 182 197 214 211 227 257 289 287 291 289 283 324 380 383 294 230 249 78 90 124 167 165 94 142 156 156
188 181 156 183 181 181 202 211 237 209 238 267 252 303 305 282 314 372 459 347 329 238 114 139 170 178 129 113 148 148 172 187
Wind_Speed
10 12 14 15 16 27 25 22 21 23 30 33 38 36 30 32 25 25 30 32 35 36 37 37 40 41 43 46 46 48 49 49
13 18 17 13 28 22 27 21 23 20 27 37 38 31 24 19 22 25 27 28 31 33 37 37 39 42 43 43 45 46 48 48
22 18 21 12 24 14 28 22 24 29 26 28 24 11 8 13 18 22 25 26 30 33 35 38 40 42 43 44 45 46 47 48
34 36 24 15 16 11 20 26 15 25 18 15 19 7 5 10 17 21 24 27 29 33 36 37 39 40 42 45 46 46 48 48
14 18 16 13 12 10 7 10 19 14 10 19 8 11 10 11 13 18 21 24 27 31 34 36 37 40 41 43 45 47 48 48
20 24 29 21 15 21 10 15 11 53 57 20 5 6 9 13 15 17 19 22 26 29 32 34 37 39 41 45 47 49 49 49
28 22 29 24 11 7 8 36 61 62 31 15 11 9 10 13 15 16 18 20 23 27 29 31 35 38 42 45 47 49 50 52
64 46 29 37 47 61 65 64 62 59 16 6 10 7 10 15 15 17 17 19 22 25 29 32 36 40 44 45 47 49 52 52
72 72 66 63 62 62 62 63 31 13 15 11 10 10 10 11 14 15 17 18 21 26 30 33 38 40 44 46 49 52 53 52
69 65 61 59 58 58 18 6 14 15 14 12 9 8 8 10 13 14 16 18 21 26 29 34 38 40 43 47 49 49 50 50
64 57 53 49 48 36 11 1 13 13 14 13 7 7 9 10 14 14 15 18 22 24 29 34 37 41 43 46 49 48 46 46
58 55 48 40 11 5 3 4 9 16 16 12 6 7 8 11 13 13 14 17 21 24 29 34 38 42 47 49 52 43 43 45
54 51 44 27 11 12 5 3 4 16 19 9 6 6 6 9 13 13 13 15 19 23 30 35 40 46 50 50 51 42 43 45
46 40 32 30 22 11 6 10 4 18 19 9 7 6 7 10 9 10 10 15 19 26 30 37 42 44 49 54 57 51 47 47
39 35 29 22 17 4 24 20 29 23 9 6 8 7 7 9 7 11 11 16 20 25 31 36 42 42 42 52 62 66 65 50
34 28 22 18 15 9 6 5 4 5 10 9 12 8 8 10 8 12 12 15 19 24 29 35 40 44 45 46 50 56 62 66
24 20 13 10 12 12 10 12 9 16 14 12 11 15 13 11 10 9 10 17 21 24 30 33 39 42 45 55 52 52 53 63
12 15 12 12 13 15 19 13 14 16 15 13 15 21 19 15 12 13 13 16 18 25 30 32 41 41 46 50 51 57 60 62
16 15 17 15 13 21 17 15 14 15 16 15 18 22 21 19 16 18 16 14 19 25 38 36 40 42 45 47 45 49 52 60
18 16 18 15 13 21 16 16 16 17 17 17 17 22 25 23 19 19 17 16 24 34 34 35 38 41 44 44 46 47 50 56
Wind_Direction
159 169 151 187 187 131 121 118 119 114 106 99 94 91 84 81 69 59 59 57 56 54 49 45 42 38 33 30 25 26 21 17
117 113 165 125 213 131 116 129 115 115 108 103 98 89 83 72 62 54 53 50 47 42 42 38 35 31 29 25 23 20 19 19
116 102 140 167 211 142 112 123 113 108 103 106 98 96 73 53 45 47 43 46 45 38 37 34 30 26 26 27 23 20 20 18
115 124 105 205 221 115 118 110 119 109 117 113 209 227 280 28 40 37 34 42 34 34 35 24 23 27 28 22 22 20 16 16
125 116 115 177 175 134 151 117 117 124 149 211 221 248 277 328 356 6 22 35 24 24 23 21 26 25 25 23 18 13 9 8
117 117 123 133 134 227 194 126 137 193 192 224 80 306 324 331 341 4 14 21 24 22 23 26 26 26 20 13 8 4 3 1
109 113 115 127 167 163 139 201 188 187 225 244 266 303 32 10 359 6 6 17 29 24 26 26 20 14 8 6 3 1 -0 357
124 124 183 193 188 178 166 158 153 195 248 280 292 353 0 57 41 19 21 23 21 20 17 14 8 5 3 3 1 359 357 357
147 154 155 157 160 158 158 181 233 253 268 290 311 327 346 14 8 13 18 20 20 17 13 9 3 2 0 360 357 354 353 355
147 152 159 163 167 162 107 105 265 277 290 304 326 358 13 21 22 24 23 24 19 8 8 2 359 358 358 356 356 356 356 357
153 153 150 144 145 127 100 314 278 291 298 313 8 39 61 32 20 25 30 12 5 7 0 358 357 355 355 355 354 354 357 358
157 161 153 139 86 9 325 310 297 291 299 320 45 35 56 25 13 16 10 5 4 5 360 357 354 352 351 350 348 349 352 353
163 161 152 128 100 101 81 102 301 294 296 332 6 31 39 12 356 0 7 8 4 1 355 351 349 349 346 345 344 348 347 345
161 156 147 144 135 114 331 116 295 296 300 326 352 8 358 349 353 356 12 3 357 350 348 346 345 346 345 345 344 340 336 336
162 160 156 150 143 119 285 292 289 297 311 316 326 339 345 343 354 343 359 358 350 350 349 347 343 343 342 344 339 335 336 340
169 166 164 165 167 178 239 249 211 273 294 303 311 316 327 332 347 335 343 349 344 347 348 347 344 340 340 339 339 336 335 333
170 175 189 207 202 206 208 203 270 309 304 297 300 303 309 313 320 322 330 333 338 343 346 343 339 336 335 339 338 336 335 331
198 190 200 200 198 218 198 231 274 293 297 288 292 299 297 296 297 304 316 327 334 331 334 336 336 336 334 335 335 333 333 333
216 212 200 204 217 197 210 239 259 267 282 275 287 291 286 283 284 294 304 318 326 328 329 327 328 332 337 336 334 335 336 334
210 226 209 246 242 205 236 246 264 270 271 276 277 281 284 286 280 286 294 306 324 325 328 331 332 333 336 337 336 335 336 336